• In Uzbekistan
  • List of Countries
  • For 7 days
  • Water Temperature
  • Satellite Maps
  • Weather Map
  • Weather Widgets
  • user-avatar
    Login

    Hourly Weather Krywe

    Today, 19 January, Saturday

    Time Temperature Precipitation Wind Pressure Humidity
    00:00 -5°C° 0 mm 2 mps 721 mmHg 95%
    01:00 -4°C° 0 mm 1 mps 721 mmHg 96%
    02:00 -4°C° 0 mm 1 mps 721 mmHg 97%
    03:00 -4°C° 0 mm 1 mps 721 mmHg 97%
    04:00 -4°C° 0 mm 1 mps 721 mmHg 97%
    05:00 -6°C° 0 mm 0 mps 722 mmHg 97%
    06:00 -7°C° 0 mm 0 mps 722 mmHg 97%
    07:00 -8°C° 0 mm 0 mps 722 mmHg 96%
    08:00 -8°C° 0 mm 1 mps 722 mmHg 97%
    09:00 -7°C° 0 mm 0 mps 722 mmHg 93%
    10:00 -5°C° 0 mm 0 mps 722 mmHg 89%
    11:00 -4°C° 0 mm 0 mps 722 mmHg 86%
    12:00 -3°C° 0 mm 0 mps 722 mmHg 81%
    13:00 -1°C° 0 mm 1 mps 722 mmHg 77%
    14:00 0°C° 0 mm 1 mps 722 mmHg 73%
    15:00 -2°C° 0 mm 1 mps 722 mmHg 78%
    16:00 -3°C° 0 mm 1 mps 722 mmHg 82%
    17:00 -6°C° 0 mm 1 mps 721 mmHg 87%
    18:00 -6°C° 0 mm 1 mps 721 mmHg 88%
    19:00 -7°C° 0 mm 1 mps 721 mmHg 88%
    20:00 -8°C° 0 mm 1 mps 721 mmHg 89%
    21:00 -8°C° 0 mm 1 mps 721 mmHg 89%
    22:00 -7°C° 0 mm 1 mps 721 mmHg 88%
    23:00 -7°C° 0 mm 1 mps 721 mmHg 87%

    Tomorrow, 20 January, Sunday

    Time Temperature Precipitation Wind Pressure Humidity
    00:00 -7°C° 0 mm 1 mps 720 mmHg 86%
    01:00 -7°C° 0 mm 1 mps 720 mmHg 84%
    02:00 -6°C° 0 mm 1 mps 720 mmHg 83%
    03:00 -6°C° 0 mm 1 mps 720 mmHg 82%
    04:00 -6°C° 0 mm 0 mps 719 mmHg 81%
    05:00 -6°C° 0 mm 0 mps 719 mmHg 80%
    06:00 -6°C° 0 mm 0 mps 719 mmHg 80%
    07:00 -6°C° 0 mm 0 mps 719 mmHg 81%
    08:00 -6°C° 0 mm 0 mps 718 mmHg 82%
    09:00 -4°C° 0 mm 0 mps 719 mmHg 81%
    10:00 -3°C° 0 mm 0 mps 719 mmHg 81%
    11:00 -2°C° 0 mm 0 mps 719 mmHg 80%
    12:00 -1°C° 0 mm 0 mps 719 mmHg 80%
    13:00 0°C° 0 mm 1 mps 718 mmHg 80%
    14:00 +1°C° 0 mm 1 mps 718 mmHg 81%
    15:00 0°C° 0 mm 1 mps 718 mmHg 85%
    16:00 -2°C° 0 mm 1 mps 718 mmHg 89%
    17:00 -3°C° 0 mm 1 mps 718 mmHg 94%
    18:00 -3°C° 0 mm 1 mps 718 mmHg 94%
    19:00 -4°C° 0 mm 1 mps 718 mmHg 95%
    20:00 -4°C° 0 mm 1 mps 718 mmHg 96%
    21:00 -6°C° 0.1 mm 1 mps 718 mmHg 96%
    22:00 -6°C° 0.1 mm 1 mps 719 mmHg 96%
    23:00 -6°C° 0.1 mm 1 mps 719 mmHg 96%

    Day after tomorrow, 21 January, Monday

    Time Temperature Precipitation Wind Pressure Humidity
    00:00 -6°C° 0 mm 1 mps 719 mmHg 96%
    01:00 -6°C° 0 mm 1 mps 720 mmHg 97%
    02:00 -7°C° 0 mm 1 mps 720 mmHg 97%
    03:00 -7°C° 0 mm 1 mps 720 mmHg 97%
    04:00 -8°C° 0 mm 1 mps 720 mmHg 97%
    05:00 -8°C° 0 mm 1 mps 720 mmHg 96%
    06:00 -9°C° 0 mm 1 mps 720 mmHg 96%
    07:00 -10°C° 0 mm 1 mps 721 mmHg 96%
    08:00 -10°C° 0 mm 1 mps 721 mmHg 96%
    09:00 -9°C° 0 mm 1 mps 721 mmHg 93%
    10:00 -7°C° 0 mm 1 mps 722 mmHg 91%
    11:00 -4°C° 0 mm 1 mps 722 mmHg 88%
    12:00 -5°C° 0 mm 2 mps 722 mmHg 87%
    13:00 -5°C° 0 mm 2 mps 722 mmHg 87%
    14:00 -4°C° 0 mm 2 mps 722 mmHg 86%
    15:00 -4°C° 0 mm 2 mps 722 mmHg 88%
    16:00 -3°C° 0 mm 1 mps 722 mmHg 90%
    17:00 -4°C° 0 mm 1 mps 722 mmHg 91%
    18:00 -6°C° 0 mm 1 mps 722 mmHg 92%
    19:00 -7°C° 0 mm 1 mps 722 mmHg 93%
    20:00 -8°C° 0 mm 1 mps 722 mmHg 94%
    21:00 -8°C° 0 mm 1 mps 721 mmHg 94%
    22:00 -9°C° 0 mm 1 mps 721 mmHg 94%
    23:00 -9°C° 0 mm 1 mps 721 mmHg 94%

    22 January, Tuesday

    Time Temperature Precipitation Wind Pressure Humidity
    00:00 -9°C° 0 mm 1 mps 721 mmHg 92%
    01:00 -9°C° 0 mm 1 mps 721 mmHg 90%
    02:00 -9°C° 0 mm 1 mps 720 mmHg 88%
    03:00 -9°C° 0 mm 1 mps 720 mmHg 88%
    04:00 -9°C° 0 mm 1 mps 719 mmHg 88%
    05:00 -9°C° 0 mm 1 mps 719 mmHg 88%
    06:00 -9°C° 0 mm 1 mps 719 mmHg 90%
    07:00 -8°C° 0 mm 1 mps 719 mmHg 92%
    08:00 -8°C° 0 mm 1 mps 718 mmHg 94%
    09:00 -6°C° 0 mm 1 mps 718 mmHg 92%
    10:00 -4°C° 0 mm 1 mps 718 mmHg 91%
    11:00 -4°C° 0 mm 2 mps 718 mmHg 89%
    12:00 -4°C° 0 mm 2 mps 718 mmHg 87%
    13:00 -4°C° 0 mm 2 mps 717 mmHg 86%
    14:00 -3°C° 0 mm 2 mps 717 mmHg 84%
    15:00 -2°C° 0 mm 1 mps 716 mmHg 87%
    16:00 -3°C° 0 mm 1 mps 716 mmHg 89%
    17:00 -4°C° 0 mm 1 mps 715 mmHg 91%
    18:00 -6°C° 0 mm 1 mps 715 mmHg 92%
    19:00 -7°C° 0 mm 1 mps 714 mmHg 92%
    20:00 -8°C° 0 mm 1 mps 714 mmHg 92%
    21:00 -8°C° 0 mm 1 mps 714 mmHg 92%
    22:00 -8°C° 0 mm 1 mps 714 mmHg 91%
    23:00 -8°C° 0 mm 1 mps 713 mmHg 90%

    23 January, Wednesday

    Time Temperature Precipitation Wind Pressure Humidity
    00:00 -8°C° 0 mm 1 mps 713 mmHg 90%
    01:00 -8°C° 0 mm 1 mps 713 mmHg 89%
    02:00 -8°C° 0 mm 1 mps 712 mmHg 89%
    03:00 -8°C° 0 mm 1 mps 712 mmHg 89%
    04:00 -7°C° 0 mm 1 mps 711 mmHg 89%
    05:00 -7°C° 0 mm 1 mps 711 mmHg 90%
    06:00 -7°C° 0 mm 1 mps 711 mmHg 91%
    07:00 -7°C° 0 mm 1 mps 711 mmHg 91%
    08:00 -7°C° 0 mm 1 mps 711 mmHg 92%
    09:00 -6°C° 0 mm 1 mps 711 mmHg 91%
    10:00 -3°C° 0 mm 1 mps 711 mmHg 91%
    11:00 -4°C° 0 mm 2 mps 711 mmHg 90%
    12:00 -3°C° 0 mm 2 mps 711 mmHg 90%
    13:00 -2°C° 0 mm 2 mps 711 mmHg 90%
    14:00 -1°C° 0 mm 2 mps 710 mmHg 90%
    15:00 -2°C° 0 mm 2 mps 710 mmHg 91%
    16:00 -3°C° 0 mm 2 mps 710 mmHg 93%
    17:00 -3°C° 0 mm 2 mps 710 mmHg 94%
    18:00 -4°C° 0 mm 2 mps 710 mmHg 95%
    19:00 -4°C° 0 mm 2 mps 710 mmHg 95%
    20:00 -5°C° 0 mm 2 mps 710 mmHg 95%
    21:00 -5°C° 0 mm 2 mps 711 mmHg 95%
    22:00 -5°C° 0 mm 2 mps 711 mmHg 95%
    23:00 -3°C° 0 mm 1 mps 711 mmHg 95%

    24 January, Thursday

    Time Temperature Precipitation Wind Pressure Humidity
    00:00 -3°C° 0 mm 1 mps 711 mmHg 95%
    01:00 -3°C° 0 mm 1 mps 711 mmHg 95%
    02:00 -3°C° 0 mm 1 mps 711 mmHg 95%
    03:00 -2°C° 0 mm 1 mps 710 mmHg 95%
    04:00 -2°C° 0 mm 1 mps 710 mmHg 95%
    05:00 -2°C° 0 mm 1 mps 710 mmHg 95%
    06:00 -1°C° 0.3 mm 1 mps 710 mmHg 96%
    07:00 -1°C° 0.3 mm 1 mps 711 mmHg 96%
    08:00 0°C° 0.3 mm 1 mps 711 mmHg 97%
    09:00 0°C° 0.7 mm 1 mps 711 mmHg 97%
    10:00 0°C° 0.7 mm 1 mps 711 mmHg 96%
    11:00 +1°C° 0.7 mm 1 mps 711 mmHg 96%
    12:00 +1°C° 0.3 mm 1 mps 711 mmHg 97%
    13:00 +2°C° 0.3 mm 1 mps 711 mmHg 98%
    14:00 +2°C° 0.3 mm 1 mps 711 mmHg 98%
    15:00 +2°C° 0 mm 1 mps 711 mmHg 98%
    16:00 +2°C° 0 mm 1 mps 711 mmHg 98%
    17:00 +2°C° 0 mm 1 mps 711 mmHg 98%
    18:00 +1°C° 0 mm 1 mps 711 mmHg 98%
    19:00 -1°C° 0 mm 2 mps 712 mmHg 98%
    20:00 -1°C° 0 mm 2 mps 712 mmHg 97%
    21:00 -1°C° 0 mm 2 mps 712 mmHg 97%
    22:00 -1°C° 0 mm 2 mps 712 mmHg 96%
    23:00 -2°C° 0 mm 2 mps 712 mmHg 96%
    Show more